Lid_Strength_Index
4 5 9 10 10 10 10 9 10 14 15 14 14 13 13 13 12 12 12 11 10 8 8 8 9 9 8 8 8 8 8 8 8 7 7 6 6 6
8 10 9 10 10 10 10 11 10 12 14 14 14 14 13 13 12 12 12 10 9 9 9 9 9 9 9 9 9 8 8 8 7 7 7 6 6 6
9 10 10 10 10 11 12 12 12 12 13 14 14 14 14 13 13 13 11 12 12 10 10 10 9 9 9 9 9 9 8 8 8 8 7 7 7 7
10 10 11 10 11 12 11 12 13 13 12 14 14 15 15 14 13 12 12 12 13 11 10 10 10 10 10 9 9 8 8 7 7 7 7 6 6 6
10 11 10 11 12 12 12 14 13 13 13 14 15 13 13 13 14 14 14 14 13 11 11 10 9 8 8 7 7 7 7 7 7 7 7 7 6 6
10 11 11 11 12 12 13 13 13 14 14 14 14 14 14 14 15 15 16 15 15 12 11 10 9 8 8 8 8 8 8 8 8 7 7 7 6 6
12 11 11 10 10 11 13 13 13 13 14 14 15 14 15 16 16 14 14 14 13 13 13 13 13 12 11 9 9 8 8 7 7 6 5 5 5 5
14 13 12 12 11 11 11 11 12 14 14 16 16 16 15 14 14 15 15 16 17 14 14 13 13 12 11 11 8 7 6 6 6 6 5 5 5 5
14 14 13 13 14 14 13 13 13 13 13 13 14 14 15 14 15 17 15 17 16 13 13 13 12 12 10 9 7 6 6 6 6 5 5 5 5 5
14 14 14 15 14 14 14 14 14 13 12 12 13 14 14 13 13 15 15 14 13 12 12 14 13 12 11 11 7 7 7 6 6 6 6 6 6 6
15 14 14 14 12 11 12 13 13 14 11 11 11 10 10 9 10 14 16 16 14 13 12 14 14 13 11 11 11 8 7 7 7 7 6 6 7 7
15 14 12 12 11 11 14 15 16 16 15 14 14 13 12 13 10 12 14 18 13 13 13 15 15 15 15 13 13 12 12 9 8 8 8 8 7 9
16 16 15 12 13 13 13 16 15 14 13 15 15 15 14 14 13 12 11 12 12 12 10 11 13 13 13 14 13 13 12 12 12 12 10 9 8 8
17 16 16 13 13 13 14 12 12 12 15 15 15 16 15 15 11 10 10 10 10 11 10 11 13 13 14 15 15 13 13 12 13 13 12 10 9 8
16 15 14 14 14 14 13 12 12 16 16 16 16 17 16 16 13 11 10 10 10 10 9 10 11 11 12 14 14 13 13 13 12 13 15 13 13 12
15 16 15 15 14 14 14 15 15 15 16 17 17 16 15 12 12 11 12 11 11 11 9 9 10 10 12 12 12 13 13 14 12 11 11 11 11 11
15 18 18 18 17 16 16 16 15 15 16 17 15 14 13 12 12 12 12 12 13 12 12 10 9 9 10 11 12 12 12 12 12 11 11 12 11 11
17 19 19 18 18 17 16 16 15 14 14 14 14 14 14 13 13 13 12 13 13 12 12 11 11 11 11 10 9 12 12 12 12 11 12 12 12 10
19 19 19 18 18 17 18 16 15 14 14 14 14 14 13 13 13 13 13 13 13 12 11 11 11 12 14 15 11 8 13 12 12 12 11 12 12 11
19 19 19 18 18 18 15 15 15 15 15 14 14 14 14 14 15 15 15 14 13 12 11 11 11 12 13 14 13 11 10 12 12 12 12 11 10 8
19 19 18 18 19 15 15 15 15 15 14 14 14 13 12 14 14 14 14 11 11 12 13 12 12 9 10 10 12 12 11 9 10 11 11 11 12 11
19 19 18 19 19 16 15 15 15 15 15 14 13 13 13 13 14 13 13 14 13 12 12 11 11 11 11 11 12 12 12 11 9 9 9 9 11 13
19 19 19 20 21 16 15 15 15 15 14 13 13 13 13 13 13 13 13 13 12 12 11 12 11 10 11 11 11 11 13 13 12 12 11 8 8 8